GW1625 Weather Reports


time (UTC)temp
C
wind
direction
speed
KPH
gust
KPH
rain 1hr
cm
rain 24hr
cm
rain mn
cm
humidity
%
barometer
mb
20260503050052 13 0 0.0 3.2 0.00 0.38 0.00 94 1011.4
20260503045544 13 0 0.0 3.2 0.00 0.38 0.00 94 1011.4
20260503045041 13 0 0.0 3.2 0.00 0.38 0.00 94 1011.3
20260503044549 13 137 0.0 3.2 0.00 0.38 0.00 94 1011.3
20260503044039 13 0 0.0 3.2 0.00 0.38 0.00 94 1011.5
20260503043544 13 0 0.0 3.2 0.00 0.38 0.00 93 1011.6
20260503043055 13 0 0.0 3.2 0.00 0.38 0.00 93 1011.5
20260503042543 12 51 0.0 1.6 0.00 0.38 0.00 93 1011.7
20260503042041 13 0 0.0 4.8 0.00 0.38 0.00 93 1011.6
20260503041552 13 41 0.0 4.8 0.00 0.38 0.00 94 1011.6
20260503041040 13 126 0.0 3.2 0.00 0.38 0.00 94 1011.7
20260503040541 13 131 0.0 3.2 0.00 0.38 0.00 93 1011.8
20260503040055 13 0 0.0 3.2 0.00 0.38 0.00 94 1011.7
20260503035541 13 0 0.0 1.6 0.00 0.38 0.00 93 1011.8
20260503035041 13 0 0.0 3.2 0.00 0.38 0.00 93 1011.7
20260503034607 13 111 0.0 3.2 0.00 0.38 0.00 93 1011.8
20260503034040 13 68 0.0 3.2 0.00 0.38 0.00 93 1011.9
20260503033540 13 108 0.0 3.2 0.00 0.38 0.00 93 1011.7
20260503033058 13 0 0.0 3.2 0.00 0.38 0.00 93 1011.8
20260503032540 13 0 0.0 1.6 0.00 0.38 0.00 93 1011.8
20260503032041 13 0 0.0 3.2 0.00 0.38 0.00 93 1011.6
20260503031602 13 93 0.0 3.2 0.00 0.38 0.00 93 1011.6
20260503031041 13 0 0.0 3.2 0.00 0.38 0.00 93 1011.7
20260503030540 13 120 0.0 3.2 0.00 0.38 0.00 93 1011.7
20260503030052 13 76 0.0 1.6 0.00 0.38 0.00 93 1011.7
20260503025539 13 0 0.0 3.2 0.00 0.38 0.00 93 1011.9
20260503025042 13 0 0.0 3.2 0.00 0.38 0.00 93 1011.9
20260503024552 13 0 0.0 3.2 0.00 0.38 0.00 93 1012.1
20260503024041 13 0 0.0 1.6 0.00 0.38 0.00 93 1012.2
20260503023543 13 0 0.0 1.6 0.00 0.38 0.00 93 1012.1
20260503023100 13 0 0.0 1.6 0.00 0.38 0.00 93 1012.1
20260503022540 13 0 0.0 1.6 0.00 0.38 0.00 93 1012.1
20260503022043 13 0 0.0 3.2 0.00 0.38 0.00 93 1012.2
20260503021552 13 93 0.0 3.2 0.00 0.38 0.00 93 1012.3
20260503021041 13 93 0.0 1.6 0.00 0.38 0.00 93 1012.3
20260503020541 13 0 0.0 1.6 0.00 0.38 0.00 93 1012.3
20260503020053 13 111 0.0 3.2 0.00 0.38 0.00 93 1012.5
20260503015541 13 0 0.0 3.2 0.00 0.38 0.00 93 1012.6
20260503015040 13 149 0.0 3.2 0.00 0.38 0.00 93 1012.7
20260503014555 13 0 0.0 3.2 0.00 0.38 0.00 93 1012.6
20260503014039 13 0 0.0 3.2 0.00 0.38 0.00 93 1012.7
20260503013544 13 0 0.0 3.2 0.00 0.38 0.00 93 1012.7
20260503013050 13 126 0.0 1.6 0.00 0.38 0.00 93 1012.8
20260503012541 13 0 0.0 1.6 0.00 0.38 0.00 93 1012.7
20260503012044 13 0 0.0 3.2 0.00 0.38 0.00 93 1012.9
20260503011550 13 0 0.0 3.2 0.00 0.38 0.00 93 1012.9
20260503011040 14 0 0.0 3.2 0.00 0.38 0.00 93 1012.9
20260503010542 14 0 0.0 3.2 0.00 0.38 0.00 93 1012.8
20260503010047 14 0 0.0 4.8 0.00 0.38 0.00 93 1012.8
20260503005541 14 0 0.0 4.8 0.00 0.38 0.00 93 1012.8
20260503005044 14 120 1.6 4.8 0.00 0.38 0.00 93 1012.6
20260503004552 13 108 0.0 4.8 0.00 0.38 0.00 93 1012.8
20260503004040 14 282 0.0 4.8 0.00 0.38 0.00 93 1012.9
20260503003540 13 51 1.6 4.8 0.00 0.38 0.00 93 1012.8
20260503003053 13 76 0.0 3.2 0.00 0.38 0.00 93 1012.9
20260503002541 13 0 0.0 3.2 0.00 0.38 0.00 92 1013.0
20260503002040 13 279 0.0 3.2 0.00 0.38 0.00 93 1013.2
20260503001608 13 0 0.0 1.6 0.00 0.38 0.00 93 1013.2
20260503001040 13 265 0.0 1.6 0.00 0.38 0.00 92 1013.3
20260503000545 13 0 0.0 4.8 0.00 0.38 0.00 92 1013.4
20260503000109 13 0 0.0 4.8 0.00 0.38 0.00 93 1013.4
20260502235540 13 325 0.0 4.8 0.00 0.38 0.00 93 1013.4
20260502235040 13 334 0.0 4.8 0.00 0.38 0.00 92 1013.4
20260502234600 13 0 1.6 4.8 0.00 0.38 0.00 92 1013.4
20260502234042 13 0 1.6 4.8 0.00 0.38 0.00 92 1013.4
20260502233541 14 178 0.0 4.8 0.00 0.38 0.00 92 1013.5
20260502233048 14 0 0.0 8.0 0.00 0.38 0.00 92 1013.6
20260502232543 13 93 0.0 8.0 0.00 0.38 0.00 92 1013.6
20260502232039 13 80 0.0 4.8 0.00 0.38 0.00 92 1013.6
20260502231600 13 0 0.0 4.8 0.00 0.38 0.00 92 1013.7
20260502231043 13 76 0.0 4.8 0.00 0.38 0.00 92 1013.7
20260502230539 14 120 0.0 4.8 0.00 0.38 0.00 92 1013.8
20260502230046 14 0 0.0 4.8 0.00 0.38 0.00 92 1013.8
20260502225541 14 0 0.0 4.8 0.00 0.38 0.00 92 1013.7
20260502225041 14 120 0.0 3.2 0.00 0.38 0.00 92 1013.8
20260502224549 14 105 0.0 3.2 0.00 0.38 0.00 92 1013.8
20260502224042 14 0 0.0 3.2 0.00 0.38 0.00 92 1013.8
20260502223540 14 334 0.0 3.2 0.00 0.38 0.00 92 1013.8
20260502223048 14 108 0.0 3.2 0.00 0.38 0.00 92 1013.8
20260502222541 14 120 0.0 3.2 0.00 0.38 0.00 92 1013.7
20260502222043 14 68 0.0 3.2 0.00 0.38 0.00 92 1013.9
20260502221547 14 298 0.0 3.2 0.00 0.38 0.00 92 1013.9
20260502221045 14 0 0.0 6.4 0.00 0.38 0.00 92 1013.9
20260502220542 14 0 1.6 6.4 0.00 0.38 0.00 91 1013.9
20260502220050 14 282 1.6 4.8 0.00 0.38 0.00 91 1013.9
20260502215541 14 301 0.0 3.2 0.00 0.38 0.38 91 1013.7
20260502215042 14 0 0.0 3.2 0.00 0.38 0.38 91 1013.7
20260502214547 14 0 0.0 4.8 0.00 0.38 0.38 91 1013.7
20260502214041 14 0 0.0 4.8 0.00 0.38 0.38 91 1013.6
20260502213541 14 0 0.0 4.8 0.00 0.38 0.38 91 1013.6
20260502213045 14 61 0.0 4.8 0.00 0.38 0.38 91 1013.6
20260502212542 14 9 0.0 4.8 0.00 0.38 0.38 91 1013.6
20260502212041 14 9 0.0 4.8 0.03 0.38 0.38 90 1013.6
20260502211542 14 0 1.6 6.4 0.05 0.38 0.38 90 1013.7
20260502211042 14 41 0.0 9.7 0.08 0.38 0.38 90 1013.7
20260502210542 14 298 3.2 9.7 0.10 0.38 0.38 90 1013.6
20260502210049 14 30 1.6 8.0 0.23 0.38 0.38 90 1013.6
20260502205542 14 0 1.6 9.7 0.36 0.38 0.38 90 1013.7
20260502205043 14 0 1.6 9.7 0.36 0.38 0.38 89 1013.9
20260502204551 15 59 3.2 9.7 0.36 0.38 0.38 89 1013.8
20260502204042 15 11 1.6 9.7 0.38 0.38 0.38 89 1014.0
20260502203543 15 93 3.2 9.7 0.38 0.38 0.38 89 1014.2
20260502203052 15 34 0.0 6.4 0.36 0.36 0.36 88 1014.3
20260502202544 15 59 0.0 6.4 0.36 0.36 0.36 88 1014.4
20260502202044 15 34 3.2 6.4 0.36 0.36 0.36 87 1014.5
20260502201552 16 303 0.0 11.3 0.33 0.33 0.33 86 1014.7
20260502201043 16 0 3.2 11.3 0.28 0.28 0.28 85 1014.7
20260502200542 16 99 3.2 16.1 0.28 0.28 0.28 83 1014.6
20260502200050 16 85 3.2 19.3 0.15 0.15 0.15 81 1014.2
20260502195542 17 298 3.2 19.3 0.03 0.03 0.03 79 1014.9
20260502195042 17 265 4.8 27.4 0.03 0.03 0.03 76 1015.1
20260502194553 18 288 8.0 27.4 0.00 0.00 0.00 72 1014.5
20260502194045 19 250 11.3 30.6 0.00 0.00 0.00 68 1014.5
20260502193542 20 290 16.1 30.6 0.00 0.00 0.00 68 1014.4
20260502193051 20 249 6.4 16.1 0.00 0.00 0.00 67 1014.3
20260502192543 20 0 0.0 1.6 0.00 0.00 0.00 67 1013.6
20260502192040 20 0 0.0 3.2 0.00 0.00 0.00 67 1013.7
20260502191552 21 0 0.0 3.2 0.00 0.00 0.00 67 1013.7
20260502191043 21 0 0.0 4.8 0.00 0.00 0.00 67 1013.6
20260502190544 21 0 0.0 4.8 0.00 0.00 0.00 67 1013.6
20260502190047 21 0 1.6 4.8 0.00 0.00 0.00 67 1013.6
20260502185543 21 334 0.0 4.8 0.00 0.00 0.00 67 1013.6
20260502185042 21 0 0.0 4.8 0.00 0.00 0.00 66 1013.8
20260502184554 21 31 0.0 4.8 0.00 0.00 0.00 66 1013.8
20260502184046 21 0 0.0 3.2 0.00 0.00 0.00 66 1013.7
20260502183542 21 0 0.0 3.2 0.00 0.00 0.00 65 1013.8
20260502183049 21 51 0.0 3.2 0.00 0.00 0.00 65 1013.8
20260502182541 21 0 0.0 3.2 0.00 0.00 0.00 64 1013.8
20260502182045 21 0 0.0 3.2 0.00 0.00 0.00 63 1013.8
20260502181553 21 0 0.0 3.2 0.00 0.00 0.00 63 1013.8
20260502181041 21 0 0.0 3.2 0.00 0.00 0.00 62 1013.8
20260502180544 22 0 0.0 3.2 0.00 0.00 0.00 61 1013.8
20260502180105 22 0 0.0 4.8 0.00 0.00 0.00 61 1013.7
20260502164039 23 17 3.2 6.4 0.00 0.00 0.00 56 1014.3
20260502163541 23 334 1.6 9.7 0.00 0.00 0.00 56 1014.4
20260502163053 23 0 1.6 9.7 0.00 0.00 0.00 58 1014.5
20260502162543 23 325 1.6 8.0 0.00 0.00 0.00 58 1014.5
20260502162040 23 19 0.0 4.8 0.00 0.00 0.00 60 1014.6
20260502161549 22 68 1.6 6.4 0.00 0.00 0.00 61 1014.7
20260502161040 22 239 1.6 6.4 0.00 0.00 0.00 61 1014.7
20260502160542 22 19 1.6 6.4 0.00 0.00 0.00 61 1014.8
20260502152041 23 247 3.2 6.4 0.00 0.00 0.00 55 1015.1
20260502151552 23 212 1.6 6.4 0.00 0.00 0.00 54 1015.1
20260502151041 23 250 1.6 6.4 0.00 0.00 0.00 54 1015.3
20260502150542 23 225 1.6 6.4 0.00 0.00 0.00 54 1015.4
20260502130545 23 128 4.8 14.5 0.00 0.00 0.00 54 1017.2
20260502123542 23 265 4.8 17.7 0.00 0.00 0.00 54 1017.6
20260502123055 24 232 6.4 17.7 0.00 0.00 0.00 56 1017.7
20260502122545 23 0 1.6 16.1 0.00 0.00 0.00 55 1017.8
20260502122044 23 257 4.8 16.1 0.00 0.00 0.00 57 1018.0
20260502121553 23 319 4.8 14.5 0.00 0.00 0.00 59 1018.0
20260502121042 23 171 6.4 14.5 0.00 0.00 0.00 58 1018.1
20260502120542 22 247 3.2 11.3 0.00 0.00 0.00 59 1018.1
20260502115544 22 239 4.8 16.1 0.00 0.00 0.00 60 1018.1
20260502115043 22 208 3.2 16.1 0.00 0.00 0.00 60 1018.2
20260502114547 23 232 3.2 16.1 0.00 0.00 0.00 60 1018.3
20260502114042 22 291 4.8 17.7 0.00 0.00 0.00 60 1018.4
20260502113542 22 26 4.8 17.7 0.00 0.00 0.00 60 1018.4
20260502113051 22 137 1.6 16.1 0.00 0.00 0.00 61 1018.6
20260502112544 22 201 4.8 16.1 0.00 0.00 0.00 61 1018.7
20260502112041 22 219 4.8 14.5 0.00 0.00 0.00 60 1018.8
20260502111559 22 221 4.8 14.5 0.00 0.00 0.00 60 1018.8
20260502111041 22 218 4.8 14.5 0.00 0.00 0.00 60 1018.8
20260502110541 22 233 3.2 14.5 0.00 0.00 0.00 61 1018.8
20260502110047 22 242 4.8 14.5 0.00 0.00 0.00 60 1018.9
20260502105542 22 212 4.8 14.5 0.00 0.00 0.00 60 1018.8
20260502105041 22 51 6.4 14.5 0.00 0.00 0.00 60 1018.8
20260502104549 22 144 3.2 12.9 0.00 0.00 0.00 61 1018.8
20260502104041 22 250 4.8 12.9 0.00 0.00 0.00 61 1018.9
20260502103542 21 233 4.8 12.9 0.00 0.00 0.00 63 1018.9
20260502103101 21 93 4.8 16.1 0.00 0.00 0.00 63 1019.0
20260502102543 21 265 4.8 16.1 0.00 0.00 0.00 61 1019.1
20260502102042 22 185 6.4 12.9 0.00 0.00 0.00 60 1019.0
20260502101601 22 229 3.2 12.9 0.00 0.00 0.00 62 1019.1
20260502101043 21 265 3.2 14.5 0.00 0.00 0.00 62 1019.1
20260502100541 21 280 3.2 14.5 0.00 0.00 0.00 63 1019.2
20260502091041 20 192 3.2 14.5 0.00 0.00 0.00 65 1019.4
20260502090545 20 301 4.8 12.9 0.00 0.00 0.00 65 1019.3
20260502071042 16 129 1.6 8.0 0.00 0.00 0.00 71 1019.8
20260502070542 16 178 1.6 8.0 0.00 0.00 0.00 71 1019.8
20260502070051 16 169 3.2 8.0 0.00 0.00 0.00 69 1019.9
20260502065542 16 124 1.6 6.4 0.00 0.00 0.00 70 1019.7
20260502065041 16 137 1.6 9.7 0.00 0.00 0.00 70 1019.7
20260502064545 16 193 3.2 9.7 0.00 0.00 0.00 70 1019.8
20260502064039 16 137 1.6 8.0 0.00 0.00 0.00 70 1019.9
20260502063542 16 137 1.6 8.0 0.00 0.00 0.00 70 1019.7
20260502063050 16 162 1.6 8.0 0.00 0.00 0.00 70 1019.7
20260502062543 15 9 1.6 6.4 0.00 0.00 0.00 70 1019.6
20260502062041 15 0 1.6 4.8 0.00 0.00 0.00 71 1019.7
20260502061555 15 146 1.6 6.4 0.00 0.00 0.00 72 1019.6
20260502061041 15 0 0.0 6.4 0.00 0.00 0.00 72 1019.7
20260502060541 14 254 1.6 6.4 0.00 0.00 0.00 72 1019.6
20260502060048 14 265 0.0 4.8 0.00 0.00 0.00 72 1019.5
20260502055541 13 205 0.0 3.2 0.00 0.00 0.00 72 1019.5
20260502055042 13 93 0.0 3.2 0.00 0.00 0.00 72 1019.6
20260502054600 13 93 0.0 3.2 0.00 0.00 0.00 71 1019.5
20260502054039 13 0 0.0 3.2 0.00 0.00 0.00 71 1019.6
20260502053539 13 239 0.0 3.2 0.00 0.00 0.00 71 1019.6
20260502053047 13 51 0.0 3.2 0.00 0.00 0.00 71 1019.5
20260502052541 13 254 0.0 3.2 0.00 0.00 0.00 71 1019.6
20260502052045 13 212 0.0 3.2 0.00 0.00 0.00 70 1019.5
20260502051549 13 0 0.0 3.2 0.00 0.00 0.00 70 1019.6
20260502051042 13 0 0.0 3.2 0.00 0.00 0.00 71 1019.5
20260502050541 13 0 0.0 3.2 0.00 0.00 0.00 71 1019.5